Regional Weather Roundup
Issued by NWS

Home | Current Version | Previous Version | Graphics & Text | Print | Product List | Glossary On
Versions: 1 2 3 4 5 6 7 8 9 10 11 12 13 14 15 16 17 18 19 20 21 22 23 24 25 26 27 28 29 30 31 32 33 34 35 36 37 38 39 40 41 42 43 44 45 46 47 48 49 50
000
ASUS43 KLOT 281103
RWRIL

ILLINOIS REGIONAL WEATHER ROUNDUP
NATIONAL WEATHER SERVICE CHICAGO/ROMEOVILLE IL
600 AM CDT FRI APR 28 2017

NOTE: "FAIR" INDICATES FEW OR NO CLOUDS BELOW 12,000 FEET WITH NO
SIGNIFICANT WEATHER AND/OR OBSTRUCTIONS TO VISIBILITY.

* THESE STATIONS ARE NOT UNDER NWS QUALITY CONTROL. THEY ALSO MAY NOT
  REPORT WEATHER SUCH AS PRECIPITATION OR FOG.

ILZ001-002-007-009-015-016-024-281200-
NORTHWEST ILLINOIS

CITY           SKY/WX    TMP DP  RH WIND       PRES   REMARKS
MOLINE         PTCLDY    37  33  85 E3        29.90R
STERLING*      CLOUDY    37  34  89 CALM      29.91R
SAVANNA*       MOCLDY    36  33  89 CALM      29.89S
$$

ILZ003-004-008-010-011-017-018-281200-
NORTH CENTRAL ILLINOIS

CITY           SKY/WX    TMP DP  RH WIND       PRES   REMARKS
ROCKFORD       MOCLDY    39  32  76 CALM      29.92R
FREEPORT*      CLOUDY    34  30  87 CALM      29.91R
ROCHELLE*      CLOUDY    36  35  96 CALM      29.90S
DE KALB*       CLOUDY    39  34  82 CALM      29.90R
PERU*          CLOUDY    39  36  87 CALM      29.92R
$$

ILZ005-006-012>014-019>023-281200-
NORTHEAST ILLINOIS

CITY           SKY/WX    TMP DP  RH WIND       PRES   REMARKS
CHICAGO-OHARE  CLOUDY    42  34  73 NW5       29.89R
CHICAGO-MIDWAY CLOUDY    44  36  73 CALM      29.90R
AURORA         CLOUDY    40  36  86 CALM      29.91R
LANSING*       CLOUDY    40  40 100 S6        29.93R FOG
WAUKEGAN       CLOUDY    39  32  76 CALM      29.89R
DUPAGE AIRPORT CLOUDY    40  36  86 CALM      29.89R
WHEELING       CLOUDY    41  36  82 W3        29.90R
MORRIS*        PTCLDY    40  37  92 CALM      29.92R
NORTHERLY ISL    N/A     45  36  70 CALM        N/A
$$

LMZ740>746-281200-
SOUTHERN LAKE MICHIGAN

STATION/POSITION SKY/WX   TEMP    WIND        PRES    VSBY  WAVE
                          AIR SEA DIR/SP/G                  HT/PER
                          (F)     (DEG/KT/KT) (MB)    (MI)  (FT/S)
SOUTHERN BUOY              42 41  280/  6/  6 1012.3          2/ 4
HARRISON CRIB              45     320/  6/  7   N/A
BURNHAM HARBOR             45      CALM  /  9   N/A
CALUMET HARBOR             44      CALM  /  2 1011.9R
BURNS HARBOR               47        CALM     1013.2R
MICHIGAN CITY              45     360/  4/  5   N/A
MICHIGAN CITY 6N           45 46                N/A           1
ST. JOSEPH                 45 48  120/  2/  2 1013.4R         1/ 4
$$

ILZ025>027-034>036-040-047-049-050-058-095>099-281200-
WEST-CENTRAL ILLINOIS

CITY           SKY/WX    TMP DP  RH WIND       PRES   REMARKS
QUINCY         MOCLDY    50  46  86 E8        29.80F
GALESBURG*     PTCLDY    40  36  87 NE7       29.87F
MACOMB*        CLEAR     44  43  97 N7        29.87F
JACKSONVILLE*  CLOUDY    49  47  92 SE9       29.84F
PITTSFIELD*    RAIN      51  49  92 E5        29.83F
$$

ILZ028>032-037-038-041>044-048-051>054-059>061-281200-
CENTRAL ILLINOIS

CITY           SKY/WX    TMP DP  RH WIND       PRES   REMARKS
PONTIAC        PTCLDY    48  46  93 S9        29.92R
DECATUR        MOCLDY    48  47  96 SE6       29.91F
PEORIA         CLEAR     47  44  90 CALM      29.88S
SPRINGFIELD    PTCLDY    51  47  86 E8        29.87S
TAYLORVILLE    DRIZZLE   49  47  93 E12       29.86F
$$

ILZ033-039-045-046-055>057-062-063-281200-
EAST-CENTRAL ILLINOIS

CITY           SKY/WX    TMP DP  RH WIND       PRES   REMARKS
CHAMPAIGN      CLOUDY    48  44  86 SE8       29.93S
RANTOUL*       PTCLDY    49  46  88 S9        29.93F
MATTOON        CLOUDY    48  46  93 E6        29.91F
PARIS*         MOCLDY    47  46  97 CALM      29.97S
$$

ILZ079-100>102-281200-
SOUTHWEST ILLINOIS

CITY           SKY/WX    TMP DP  RH WIND       PRES   REMARKS
BELLEVILLE     MOCLDY    52  52 100 E5        29.85R
CAHOKIA*       CLOUDY    53  50  89 SE5       29.86R
$$

ILZ064>066-069>071-074>076-080>082-084>086-088>090-092>094-281200-
SOUTH-CENTRAL ILLINOIS

CITY           SKY/WX    TMP DP  RH WIND       PRES   REMARKS
CARBONDALE     CLOUDY    53  51  93 SE6       29.88R
CAIRO*         CLOUDY    55  52  88 NE3       29.88R
EFFINGHAM*     CLOUDY    50  49  99 E7        29.94S
MARION         CLOUDY    54  54 100 SE7       29.88S
MT. VERNON     MOCLDY    52  49  89 NE8       29.87F
CENTRALIA*     CLOUDY    53  50  87 E7        29.87R
SALEM*         CLOUDY    52  48  86 CALM      29.90S
$$

ILZ067-068-072-073-078-083-087-091-281200-
SOUTHEAST ILLINOIS

CITY           SKY/WX    TMP DP  RH WIND       PRES   REMARKS
LAWRENCEVILLE  MOCLDY    50  48  93 S7        29.96R
FLORA*         MOCLDY    52  49  90 E7        29.90R
FAIRFIELD*     MOCLDY    52  49  90 E5        29.89F
HARRISBURG*    CLOUDY    53  50  91 SE8       29.91R
ROBINSON*      CLOUDY    47  46  95 NE8       29.94F
CARMI*         CLOUDY    51  50  93 S3        29.92S
$$

ABBREVIATIONS USED IN REMARKS
   TC - TEMPERATURE IN CELSIUS
  WCI - WIND CHILL INDEX
   HX - HEAT INDEX
  VSB - VISIBILITY
$$





USA.gov is the U.S. government's official web portal to all federal, state and local government web resources and services.